Location: Unspecified
(54.3520°N, 0.0000°E)
Time: 13:51:48
(UTC+00:00)

SL-16 Debris - Visible Passes

Search period start: 04 April 2026 00:00
Search period end: 14 April 2026 00:00
Orbit: 838 x 1151 km, 71.0° (Epoch: 28 March)

Date Brightness Start Highest point End Pass type
(mag) Time Alt. Az. Time Alt. Az. Time Alt. Az.
4 Apr ? 00:14:34 20° ESE 00:15:19 20° E 00:20:12 10° NE visible
4 Apr ? 01:59:37 49° S 02:01:46 74° ESE 02:08:51 10° NE visible
4 Apr ? 03:44:40 17° W 03:49:49 40° NW 03:56:23 10° NNE visible
5 Apr ? 00:45:18 34° ESE 00:46:12 35° ESE 00:52:29 10° NE visible
5 Apr ? 02:30:21 39° SW 02:33:18 72° NW 02:40:22 10° NNE visible
5 Apr ? 04:15:47 10° W 04:21:59 29° NNW 04:27:57 10° NNE visible
5 Apr ? 23:30:57 15° E 23:31:14 15° E 23:34:52 10° ENE visible
6 Apr ? 01:16:00 51° SSE 01:17:21 58° ESE 01:24:16 10° NE visible
6 Apr ? 03:01:03 25° WSW 03:05:05 48° NW 03:11:51 10° NNE visible
7 Apr ? 00:01:37 27° ESE 00:01:58 27° E 00:07:40 10° NE visible
7 Apr ? 01:46:40 51° SSW 01:48:45 88° WNW 01:55:51 10° NNE visible
7 Apr ? 03:31:43 14° W 03:37:07 34° NW 03:43:21 10° NNE visible
7 Apr ? 22:47:12 10° E 22:47:12 10° E 22:47:56 10° E visible
8 Apr ? 00:32:15 44° SE 00:32:59 45° ESE 00:39:39 10° NE visible
8 Apr ? 02:17:18 34° WSW 02:20:25 58° NW 02:27:20 10° NNE visible
8 Apr ? 04:03:33 10° WNW 04:09:23 26° NNW 04:14:59 10° NNE visible
8 Apr ? 23:17:50 20° E 23:17:50 20° E 23:22:41 10° NE visible
9 Apr ? 01:02:52 59° S 01:04:16 74° ESE 01:11:18 10° NE visible
9 Apr ? 02:47:54 20° W 02:52:20 40° NW 02:58:48 10° NNE visible
9 Apr ? 04:36:35 10° WNW 04:41:49 21° NNW 04:46:50 10° NE visible
9 Apr ? 23:48:24 35° ESE 23:48:42 35° ESE 23:54:56 10° NE visible
10 Apr ? 01:33:26 45° WSW 01:35:49 72° NW 01:42:48 10° NNE visible
10 Apr ? 03:18:28 10° W 03:24:28 29° NNW 03:30:20 10° NNE visible
10 Apr ? 22:33:54 15° E 22:33:54 15° E 22:37:20 10° ENE visible
11 Apr ? 00:18:56 55° SE 00:19:51 59° ESE 00:26:42 10° NE visible
11 Apr ? 02:03:58 27° WSW 02:07:36 47° NW 02:14:16 10° NNE visible
11 Apr ? 03:51:22 10° WNW 03:56:50 23° NNW 04:02:04 10° NNE visible
11 Apr ? 23:04:24 27° ESE 23:04:28 27° E 23:10:07 10° NE visible
12 Apr ? 00:49:26 55° SW 00:51:16 88° WNW 00:58:16 10° NNE visible
12 Apr ? 02:34:28 15° W 02:39:37 33° NW 02:45:46 10° NNE visible
12 Apr ? 04:24:22 10° NW 04:29:20 20° N 04:34:05 10° NE visible
12 Apr ? 21:49:51 10° E 21:49:51 10° E 21:50:27 10° E visible
12 Apr ? 23:34:52 45° ESE 23:35:29 45° ESE 23:42:04 10° NE visible
13 Apr ? 01:19:54 35° WSW 01:22:55 58° NW 01:29:45 10° NNE visible
13 Apr ? 03:06:08 10° WNW 03:11:53 25° NNW 03:17:22 10° NNE visible
13 Apr ? 22:20:16 20° E 22:20:17 20° E 22:25:07 10° NE visible
